Weather in Khotinec

Russia / Oryol Oblast     53°08′26″N   35°23′40″E
temp.,
°C
wind,
m/s
gust,
m/s
humid.,
%
clouds,
%
prec.,
mm/h
press.,
hPa
HPBL,
m
11 may, tue
tue1100:00+7nne514745 0.0 1024347
03:00+6nne412815 0.0 1024306
06:00+6nne514845 0.0 1024357
09:00+12nne711725 0.0 1023509
12:00+16ne710665 0.0 1022880
15:00+18ene7116799 0.0 10211438
18:00+11se598990 0.4 1023435
21:00+8e38947 0.4 1024223
12 may, wed
wed1200:00+7e310950 0.0 1025243
03:00+5ese410945 0.0 1026294
06:00+5e369397 0.0 1026174
09:00+11ene457292 0.0 1025539
12:00+12ne5670100 0.1 10221139
15:00+8ne3490100 1.6 1020452
18:00+8se2491100 0.9 1017374
21:00+7ese4109647 0.9 1018303
13 may, thu
thu1300:00+8ese5129583 0.8 1016637
03:00+7se5129767 0.9 1017498
06:00+6se4109851 0.0 1018372
09:00+11se598095 0.0 1017800
12:00+14sse586370 0.0 10171526
15:00+16sse566467 0.3 10151237
18:00+15sse477685 0.5 1015844
21:00+10se34935 0.5 101560
14 may, fri
fri1400:00+10se349492 0.0 101559
03:00+10ese3695100 0.0 101592
06:00+12ese4997100 1.2 1014228
09:00+15ese6118862 2.9 1013566
12:00+20se797489 0.1 10121124
15:00+21sse697421 2.5 10111261
18:00+20s4883100 2.0 1011681
21:00+16ssw339282 3.9 101142
15 may, sat
sat1500:00+14ssw1191100 0.0 101010
03:00+14sse1199100 5.7 101030
06:00+14se3696100 1.0 1010159
09:00+15sse3695100 3.1 1009308
12:00+19sse24775 0.9 1009638
15:00+21s677112 2.0 10081173
18:00+19ssw477974 1.9 1008599
21:00+14ssw34915 3.8 100859